Wind_Speed
8 8 8 8 8 8 9 9 9 10 10 10 10 10 10 11 12 13 14 15 15 16 16 17 17 18 19 19 20 21 22 23 23 24 25 25 25 25
8 8 9 9 9 10 10 10 10 11 11 10 10 11 11 12 13 14 14 15 16 17 18 18 18 19 19 20 21 22 23 23 24 25 24 25 26 27
9 9 10 10 10 10 11 11 11 11 11 11 12 12 13 14 14 15 16 17 17 18 18 19 19 20 21 22 23 23 24 25 26 26 27 26 26 27
10 10 10 10 11 11 11 11 11 11 12 12 12 13 14 15 16 16 17 18 18 19 20 20 21 22 23 24 24 25 26 26 27 27 27 27 27 28
10 11 11 11 11 11 11 11 12 12 13 14 14 15 16 17 18 19 20 20 20 21 22 22 23 24 25 25 26 27 27 28 28 28 29 29 30 30
10 11 11 11 11 11 12 12 13 14 15 15 16 17 18 19 20 20 21 22 23 23 24 24 25 26 26 27 28 28 28 29 29 30 30 31 31 32
11 11 11 11 12 12 13 14 14 15 16 17 18 18 19 20 20 21 22 23 24 24 25 26 27 28 28 29 29 29 30 30 30 31 32 32 33 33
12 12 13 13 13 14 14 15 16 16 17 18 19 20 20 21 22 22 23 24 25 26 26 27 28 28 29 30 31 31 31 32 32 33 34 34 34 34
13 14 14 14 14 15 16 16 17 18 19 20 20 21 21 22 23 24 25 26 27 27 27 28 29 29 30 31 32 33 34 34 35 35 36 36 36 36
15 15 15 16 16 17 17 17 18 19 20 21 22 22 23 24 25 26 27 27 28 29 29 30 31 32 33 33 34 34 35 36 37 37 37 37 38 38
16 16 17 17 18 18 19 19 20 21 22 23 23 24 24 25 26 27 28 29 29 30 31 32 32 33 34 35 36 36 37 38 38 38 38 38 38 39
17 18 18 18 18 19 20 20 21 22 23 24 25 25 26 26 27 28 29 30 30 31 32 33 34 35 35 36 38 38 39 39 39 38 38 38 39 40
19 19 20 20 20 21 22 22 23 24 24 25 25 26 27 27 28 29 30 31 31 33 34 35 35 37 37 38 38 39 39 39 39 40 40 40 40 40
20 21 21 22 22 23 23 24 24 25 25 26 27 28 28 29 30 31 31 32 33 35 36 37 37 38 38 38 38 39 40 40 40 41 41 41 41 41
22 23 23 23 23 24 24 25 26 26 27 28 29 29 30 31 32 33 33 34 35 36 37 38 38 38 39 40 40 41 41 42 43 42 42 41 41 41
23 24 24 24 25 25 26 26 27 28 29 30 30 31 32 33 34 35 36 36 37 37 38 38 38 39 40 41 42 42 43 44 44 43 43 43 42 42
25 25 25 26 26 27 28 28 29 30 31 32 33 34 34 35 36 37 38 38 38 38 38 39 39 40 41 42 43 44 44 44 43 43 43 42 42 41
27 27 27 27 28 29 30 30 31 32 33 34 35 36 36 37 37 38 39 39 39 39 39 40 41 42 43 44 44 44 43 43 43 42 42 42 41 41
29 29 29 30 30 31 32 33 33 34 35 36 37 37 37 38 39 39 39 39 39 40 41 41 42 43 44 44 44 43 42 42 42 42 42 41 41 41
30 31 31 32 32 33 34 34 35 36 37 37 38 38 38 39 40 40 40 40 41 42 42 42 43 44 44 44 43 43 43 42 42 42 42 41 41 42
32 32 33 33 34 34 35 36 37 38 38 38 38 39 39 40 41 41 41 41 42 42 42 43 43 44 44 44 43 43 43 44 44 43 43 42 42 43
32 33 33 34 34 35 36 37 38 38 38 39 39 40 41 42 42 41 41 42 42 43 43 43 43 44 45 45 44 44 44 44 45 45 44 44 44 43
33 33 34 34 35 36 36 37 38 38 39 39 40 41 42 42 42 42 43 43 43 43 43 43 43 44 45 44 44 44 44 44 44 44 44 44 44 44
Wind_Direction
285 287 288 287 289 289 290 293 294 294 293 293 292 292 294 293 293 291 290 290 291 292 294 295 296 296 296 295 295 295 295 295 294 292 290 289 288 287
290 291 291 290 288 288 290 292 294 293 292 292 294 295 295 295 295 295 294 294 294 294 295 295 297 298 298 299 299 298 298 298 297 296 294 291 289 287
293 294 292 292 292 292 292 293 293 293 294 292 291 293 296 297 298 298 297 297 298 297 298 298 299 300 300 301 301 301 300 299 298 295 294 294 293 290
293 294 294 293 293 293 292 292 292 293 294 294 293 295 299 300 301 301 300 299 299 299 299 299 300 300 299 299 300 300 300 299 297 296 294 293 292 292
292 293 294 293 292 292 292 293 294 294 294 293 295 297 298 300 300 300 300 300 300 300 299 300 300 300 300 300 301 300 300 299 298 297 295 294 292 291
295 294 294 293 291 291 292 293 294 295 296 296 296 297 298 300 301 302 302 302 301 300 299 300 300 300 300 301 301 301 301 300 299 297 296 294 292 291
297 298 296 292 290 291 290 291 292 295 297 298 299 300 300 301 303 303 303 303 302 302 301 301 301 301 301 301 301 301 301 301 300 298 297 295 293 291
293 295 295 292 290 290 291 291 292 295 298 299 300 300 300 302 302 303 303 303 303 303 303 304 304 304 303 302 302 302 302 302 301 299 298 296 293 291
293 294 295 296 296 295 295 296 296 296 298 299 299 300 300 301 302 303 304 304 304 304 304 304 305 306 306 305 304 303 302 302 302 300 298 297 295 292
291 292 294 295 295 296 296 297 296 297 299 301 300 299 300 301 301 302 303 304 304 304 304 304 305 305 305 305 305 304 304 303 302 300 299 297 296 295
291 291 291 293 294 295 296 297 297 298 299 300 301 301 300 301 302 303 304 304 304 304 304 305 305 305 305 305 305 305 304 304 303 302 300 298 297 296
289 289 289 290 292 294 295 296 297 298 299 300 301 301 301 302 303 304 304 304 304 304 304 305 305 305 305 304 304 304 304 304 304 303 301 300 298 296
288 288 288 289 290 292 295 296 297 298 299 300 301 302 302 302 303 303 304 304 305 305 305 305 306 306 306 305 304 304 304 304 303 302 302 300 299 298
288 287 287 288 290 292 294 296 297 298 299 300 301 302 302 302 302 302 303 304 305 306 306 306 306 306 306 306 305 304 303 303 302 302 301 300 299 298
289 288 288 287 289 290 293 295 297 298 299 300 300 301 301 302 302 303 303 304 306 306 306 307 307 308 308 308 307 305 304 304 303 302 301 300 299 298
289 289 288 289 289 289 292 294 296 298 299 300 300 301 301 302 303 303 304 304 305 305 306 307 308 309 310 310 309 308 306 305 304 303 302 301 300 298
288 289 289 289 289 290 292 294 295 297 298 299 300 301 302 302 303 303 304 305 305 306 306 307 308 309 310 311 311 310 308 306 305 304 303 303 302 301
287 288 289 289 289 289 291 293 294 296 297 298 299 301 302 303 303 303 304 305 305 305 306 307 308 309 310 311 311 310 308 306 305 304 304 304 303 302
287 288 288 289 289 290 291 292 294 295 296 297 299 300 302 303 304 304 304 304 304 305 306 306 307 309 309 310 311 310 309 307 306 306 305 304 303 302
287 287 288 289 289 290 292 293 294 295 295 296 298 299 301 303 304 304 304 303 303 304 305 306 307 308 309 310 310 309 308 308 307 307 306 305 304 303
286 286 287 288 289 291 292 294 296 296 296 297 298 299 301 302 304 304 304 303 304 304 305 306 307 308 309 310 310 310 309 308 308 307 307 305 305 304
287 288 288 289 290 292 293 294 295 296 296 297 299 299 300 302 303 303 304 304 304 305 305 306 307 308 309 310 310 310 309 308 308 308 308 307 306 306
288 288 289 290 291 293 294 296 296 296 297 297 298 299 300 302 302 303 304 305 305 306 306 306 307 308 309 309 310 310 310 309 308 308 308 307 307 307
Height
5841 5840 5840 5840 5840 5839 5839 5839 5839 5838 5837 5837 5836 5835 5834 5834 5833 5832 5831 5830 5829 5827 5826 5825 5823 5822 5820 5818 5817 5815 5813 5811 5809 5807 5805 5803 5802 5800
5839 5839 5838 5838 5837 5837 5837 5836 5836 5835 5835 5834 5833 5832 5832 5831 5830 5828 5827 5826 5825 5823 5822 5820 5819 5817 5815 5813 5811 5809 5807 5805 5803 5801 5798 5796 5795 5793
5837 5836 5836 5835 5835 5834 5834 5834 5833 5833 5832 5831 5830 5830 5828 5827 5826 5825 5823 5822 5820 5819 5817 5816 5814 5812 5810 5808 5806 5803 5801 5799 5796 5794 5792 5790 5788 5786
5835 5834 5834 5833 5832 5832 5831 5831 5830 5830 5829 5828 5827 5826 5825 5824 5822 5821 5819 5818 5816 5814 5812 5811 5809 5807 5804 5802 5800 5797 5795 5792 5790 5787 5785 5783 5780 5778
5833 5832 5831 5831 5830 5829 5829 5828 5827 5827 5826 5825 5824 5822 5821 5820 5818 5817 5815 5813 5811 5809 5807 5805 5803 5801 5798 5796 5793 5790 5788 5785 5782 5780 5777 5775 5773 5770
5830 5829 5829 5828 5827 5827 5826 5825 5824 5823 5822 5821 5820 5818 5817 5815 5813 5811 5809 5807 5805 5803 5801 5799 5796 5794 5791 5789 5786 5783 5780 5777 5774 5772 5769 5766 5764 5761
5828 5827 5826 5825 5825 5824 5823 5822 5821 5820 5818 5817 5815 5814 5812 5810 5808 5806 5804 5802 5799 5797 5794 5792 5789 5787 5784 5781 5778 5775 5772 5769 5766 5763 5760 5757 5754 5752
5825 5824 5823 5822 5821 5820 5819 5818 5817 5816 5814 5813 5811 5809 5807 5805 5803 5801 5798 5796 5794 5791 5788 5785 5782 5779 5776 5773 5770 5766 5763 5760 5757 5754 5751 5747 5744 5741
5822 5821 5820 5819 5817 5816 5815 5814 5813 5811 5810 5808 5806 5804 5802 5800 5798 5795 5792 5790 5787 5784 5781 5779 5775 5772 5768 5765 5761 5758 5754 5751 5747 5744 5740 5737 5734 5731
5818 5817 5816 5815 5814 5812 5811 5810 5808 5806 5805 5803 5801 5799 5796 5794 5792 5789 5786 5783 5780 5777 5774 5771 5768 5764 5760 5756 5752 5749 5745 5741 5737 5733 5730 5726 5723 5720
5814 5813 5812 5811 5809 5808 5807 5805 5803 5801 5799 5797 5795 5792 5790 5787 5785 5782 5779 5776 5773 5770 5766 5763 5760 5756 5752 5748 5743 5739 5735 5731 5727 5723 5719 5715 5712 5708
5810 5808 5807 5806 5805 5803 5801 5800 5798 5796 5794 5791 5789 5786 5784 5781 5778 5775 5772 5769 5765 5762 5758 5755 5751 5747 5743 5739 5734 5729 5725 5720 5716 5712 5708 5704 5700 5697
5804 5803 5802 5801 5799 5797 5796 5794 5792 5790 5788 5785 5783 5780 5777 5774 5771 5768 5764 5761 5758 5754 5750 5746 5742 5737 5733 5729 5724 5719 5714 5710 5705 5701 5697 5693 5689 5685
5799 5798 5796 5795 5793 5791 5790 5788 5786 5783 5781 5779 5776 5773 5770 5767 5763 5760 5756 5753 5749 5745 5740 5736 5732 5728 5723 5718 5714 5709 5704 5699 5694 5690 5685 5681 5676 5672
5793 5792 5790 5788 5787 5785 5783 5781 5779 5777 5774 5772 5769 5766 5762 5759 5755 5752 5748 5744 5740 5735 5731 5726 5722 5717 5712 5708 5703 5698 5693 5688 5682 5678 5673 5668 5664 5660
5787 5785 5783 5781 5780 5778 5776 5774 5772 5769 5767 5764 5761 5758 5754 5750 5746 5743 5739 5734 5730 5726 5721 5716 5711 5707 5702 5696 5691 5685 5680 5675 5670 5665 5660 5656 5651 5646
5779 5778 5776 5774 5773 5771 5768 5766 5763 5761 5758 5755 5752 5748 5745 5741 5737 5733 5729 5724 5720 5715 5711 5706 5701 5696 5691 5686 5680 5673 5667 5662 5657 5652 5647 5643 5638 5634
5772 5770 5768 5767 5765 5762 5760 5758 5755 5752 5749 5746 5742 5739 5735 5732 5727 5723 5719 5714 5709 5705 5700 5696 5691 5685 5680 5674 5668 5662 5656 5650 5645 5639 5634 5630 5626 5621
5763 5762 5760 5758 5756 5753 5751 5748 5745 5742 5739 5736 5732 5729 5725 5721 5717 5713 5708 5703 5699 5695 5690 5685 5679 5674 5668 5663 5657 5650 5644 5639 5633 5628 5623 5618 5614 5609
5754 5752 5750 5748 5746 5743 5741 5738 5735 5732 5729 5725 5722 5718 5714 5710 5706 5702 5697 5692 5688 5683 5678 5673 5668 5662 5656 5651 5646 5639 5633 5627 5622 5616 5611 5606 5601 5596
5744 5742 5740 5738 5735 5733 5730 5727 5724 5721 5718 5714 5711 5707 5703 5699 5695 5690 5685 5680 5676 5671 5666 5661 5656 5650 5644 5639 5634 5628 5621 5614 5609 5604 5599 5594 5590 5585
5734 5732 5730 5727 5725 5722 5719 5716 5713 5710 5707 5703 5700 5696 5692 5688 5683 5678 5674 5669 5664 5659 5654 5649 5644 5638 5633 5627 5622 5616 5610 5603 5597 5591 5585 5580 5575 5571
5724 5721 5719 5717 5714 5711 5708 5705 5702 5699 5695 5692 5688 5684 5680 5676 5671 5667 5662 5657 5652 5647 5642 5637 5632 5627 5621 5615 5610 5604 5598 5592 5586 5580 5574 5568 5562 5557